NEWPRT Weather Reports


Display with metric or nautical units.
time (UTC)temp
F
wind
direction
speed
MPH
gust
MPH
rain 1hr
in
rain 24hr
in
rain mn
in
humidity
%
barometer
mb
20260901103443 0 0 0.0 1.0 0.00 0.00 0.00 55
20260901102919 0 0 0.0 0.0 0.00 0.00 0.00 54
20260901102356 0 0 0.0 0.0 0.00 0.00 0.00 58
20260901100747 0 0 0.0 0.0 0.00 0.00 0.00 56
20260901100224 0 0 0.0 0.0 0.00 0.00 0.00 56
20260901095701 0 0 0.0 0.0 0.00 0.00 0.00 56
20260901095138 0 0 0.0 0.0 0.00 0.00 0.00 54
20260901094615 0 0 0.0 3.0 0.00 0.00 0.00 52
20260901094052 0 68 0.0 3.0 0.00 0.00 0.00 52
20260901093529 0 96 0.0 3.0 0.00 0.00 0.00 55
20260901093006 0 145 0.0 1.0 0.00 0.00 0.00 56
20260901092443 0 0 0.0 3.0 0.00 0.00 0.00 57
20260901091921 0 0 0.0 3.0 0.00 0.00 0.00 56
20260901091357 0 176 0.0 2.0 0.00 0.00 0.00 56
20260901090834 0 0 0.0 0.0 0.00 0.00 0.00 56
20260901090311 0 0 0.0 0.0 0.00 0.00 0.00 56
20260901085749 0 0 0.0 0.0 0.00 0.00 0.00 49
20260901085225 0 0 0.0 0.0 0.00 0.00 0.00 55
20260901084702 0 0 0.0 0.0 0.00 0.00 0.00 54
20260901084140 0 0 0.0 0.0 0.00 0.00 0.00 55
20260901083616 0 0 0.0 0.0 0.00 0.00 0.00 54
20260901083053 0 0 0.0 0.0 0.00 0.00 0.00 48
20260901082530 0 0 0.0 0.0 0.00 0.00 0.00 48
20260901082007 0 0 0.0 2.0 0.00 0.00 0.00 48
20260901081444 0 23 0.0 2.0 0.00 0.00 0.00 52
20260901080921 0 57 0.0 2.0 0.00 0.00 0.00 50
20260901080358 0 0 0.0 0.0 0.00 0.00 0.00 53
20260901075835 0 0 0.0 0.0 0.00 0.00 0.00 51
20260901075312 0 0 0.0 1.0 0.00 0.00 0.00 51
20260901074749 0 0 0.0 1.0 0.00 0.00 0.00 52
20260901074228 0 144 0.0 4.0 0.00 0.00 0.00 48
20260901073703 0 0 0.0 4.0 0.00 0.00 0.00 51
20260901073140 0 196 0.0 4.0 0.00 0.00 0.00 54
20260901072617 0 0 0.0 2.0 0.00 0.00 0.00 53
20260901072054 0 0 0.0 2.0 0.00 0.00 0.00 55
20260901071530 0 74 0.0 2.0 0.00 0.00 0.00 55
20260901071007 0 187 0.0 4.0 0.00 0.00 0.00 55
20260901070444 0 0 0.0 4.0 0.00 0.00 0.00 53
20260901065921 0 120 0.0 4.0 0.00 0.00 0.00 54
20260901065358 0 302 0.0 3.0 0.00 0.00 0.00 52
20260901064836 0 63 0.0 3.0 0.00 0.00 0.00 51
20260901064312 0 343 0.0 2.0 0.00 0.00 0.00 52
20260901063749 0 180 0.0 2.0 0.00 0.00 0.00 57
20260901063227 0 193 0.0 2.0 0.00 0.00 0.00 58
20260901062703 0 189 0.0 2.0 0.00 0.00 0.00 58
20260901062140 0 40 0.0 2.0 0.00 0.00 0.00 61
20260901061618 0 36 0.0 2.0 0.00 0.00 0.00 59
20260901061055 0 130 0.0 1.0 0.00 0.00 0.00 59
20260901060531 0 0 0.0 1.0 0.00 0.00 0.00 60
20260901060008 0 191 0.0 1.0 0.00 0.00 0.00 60
20260901055445 0 0 0.0 0.0 0.00 0.00 0.00 59
20260901054922 0 0 0.0 0.0 0.00 0.00 0.00 61
20260901054359 0 0 0.0 5.0 0.00 0.00 0.00 61
20260901053836 0 256 0.0 5.0 0.00 0.00 0.00 59
20260901053314 0 32 0.0 2.0 0.00 0.00 0.00 58
20260901052751 0 0 0.0 0.0 0.00 0.00 0.00 58
20260901052228 0 0 0.0 0.0 0.00 0.00 0.00 57
20260901051704 0 0 0.0 0.0 0.00 0.00 0.00 56
20260901051141 0 0 0.0 0.0 0.00 0.00 0.00 55
20260901050618 0 0 0.0 0.0 0.00 0.00 0.00 57
20260901050055 0 0 0.0 0.0 0.00 0.00 0.00 52
20260901045532 0 0 0.0 0.0 0.00 0.00 0.00 52
20260901045009 0 0 0.0 5.0 0.00 0.00 0.00 53
20260901044446 0 7 0.0 5.0 0.00 0.00 0.00 53
20260901043923 0 32 0.0 5.0 0.00 0.00 0.00 53
20260901043400 0 0 0.0 0.0 0.00 0.00 0.00 54
20260901042837 0 0 0.0 0.0 0.00 0.00 0.00 50
20260901042314 0 0 0.0 4.0 0.00 0.00 0.00 50
20260901041751 0 0 0.0 4.0 0.00 0.00 0.00 52
20260901041228 0 32 0.0 4.0 0.00 0.00 0.00 49
20260901040705 0 0 1.0 1.0 0.00 0.00 0.00 54
20260901040142 0 0 0.0 2.0 0.00 0.00 0.00 53
20260901035619 0 0 0.0 2.0 0.00 0.00 0.00 53
20260901035056 0 347 0.0 2.0 0.00 0.00 0.00 52
20260901034533 0 0 0.0 1.0 0.00 0.00 0.00 53
20260901034010 0 49 0.0 1.0 0.00 0.00 0.00 53
20260901033447 0 29 0.0 1.0 0.00 0.00 0.00 53
20260901032924 0 0 0.0 1.0 0.00 0.00 0.00 53
20260901032401 0 154 0.0 6.0 0.00 0.00 0.00 48
20260901031839 0 114 2.0 6.0 0.00 0.00 0.00 52
20260901031316 0 114 0.0 7.0 0.00 0.00 0.00 52
20260901030752 0 100 1.0 7.0 0.00 0.00 0.00 52
20260901030229 0 109 0.0 7.0 0.00 0.00 0.00 51
20260901025706 0 119 4.0 7.0 0.00 0.00 0.00 50
20260901025144 0 119 3.0 7.0 0.00 0.00 0.00 49
20260901024620 0 88 3.0 7.0 0.00 0.00 0.00 48
20260901024057 0 121 4.0 5.0 0.00 0.00 0.00 48
20260901023534 0 113 2.0 5.0 0.00 0.00 0.00 47
20260901023011 0 126 3.0 7.0 0.00 0.00 0.00 48
20260901022450 0 116 0.0 7.0 0.00 0.00 0.00 49
20260901021925 0 114 1.0 7.0 0.00 0.00 0.00 47
20260901021402 0 124 5.0 7.0 0.00 0.00 0.00 47
20260901020839 0 103 0.0 7.0 0.00 0.00 0.00 48
20260901020316 0 124 4.0 6.0 0.00 0.00 0.00 46
20260901015753 0 116 0.0 4.0 0.00 0.00 0.00 47
20260901015230 0 137 2.0 5.0 0.00 0.00 0.00 45
20260901014707 0 119 0.0 5.0 0.00 0.00 0.00 45
20260901014144 0 106 0.0 5.0 0.00 0.00 0.00 46
20260901013621 0 42 0.0 5.0 0.00 0.00 0.00 45
20260901013100 0 114 0.0 5.0 0.00 0.00 0.00 41
20260901012535 0 128 0.0 5.0 0.00 0.00 0.00 44
20260901012012 0 138 1.0 6.0 0.00 0.00 0.00 44
20260901011449 0 109 2.0 6.0 0.00 0.00 0.00 42
20260901010926 0 110 0.0 6.0 0.00 0.00 0.00 43
20260901010403 0 28 0.0 5.0 0.00 0.00 0.00 42
20260901005840 0 123 0.0 5.0 0.00 0.00 0.00 43
20260901005317 0 114 2.0 5.0 0.00 0.00 0.00 43
20260901004754 0 130 1.0 6.0 0.00 0.00 0.00 41
20260901004231 0 120 2.0 6.0 0.00 0.00 0.00 39
20260901003708 0 119 1.0 6.0 0.00 0.00 0.00 39
20260901003145 0 124 3.0 6.0 0.00 0.00 0.00 38
20260901002622 0 102 4.0 6.0 0.00 0.00 0.00 38
20260901002059 0 110 2.0 6.0 0.00 0.00 0.00 37
20260901001536 0 119 1.0 7.0 0.00 0.00 0.00 36
20260901001013 0 120 3.0 7.0 0.00 0.00 0.00 37
20260901000450 0 49 1.0 7.0 0.00 0.00 0.00 37
20260831235927 0 54 1.0 6.0 0.00 0.00 0.00 35
20260831235404 0 127 0.0 3.0 0.00 0.00 0.00 36
20260831234841 0 130 0.0 7.0 0.00 0.00 0.00 36
20260831234317 0 116 0.0 7.0 0.00 0.00 0.00 36
20260831233754 0 138 0.0 5.0 0.00 0.00 0.00 36
20260831233231 0 40 2.0 6.0 0.00 0.00 0.00 34
20260831232708 0 96 1.0 6.0 0.00 0.00 0.00 33
20260831232146 0 50 0.0 6.0 0.00 0.00 0.00 33
20260831231623 0 127 1.0 6.0 0.00 0.00 0.00 31
20260831231059 0 107 0.0 8.0 0.00 0.00 0.00 31
20260831230536 0 120 3.0 8.0 0.00 0.00 0.00 29
20260831230013 0 120 0.0 8.0 0.00 0.00 0.00 26
20260831225451 0 32 2.0 7.0 0.00 0.00 0.00 26
20260831224927 0 114 4.0 7.0 0.00 0.00 0.00 28
20260831224404 0 126 3.0 7.0 0.00 0.00 0.00 27
20260831223841 0 120 3.0 7.0 0.00 0.00 0.00 22
20260831223318 0 106 3.0 7.0 0.00 0.00 0.00 21
20260831222755 0 117 5.0 7.0 0.00 0.00 0.00 18
20260831222232 0 103 3.0 7.0 0.00 0.00 0.00 16
20260831221710 0 100 1.0 7.0 0.00 0.00 0.00 17
20260831221146 0 124 1.0 7.0 0.00 0.00 0.00 17
20260831220624 0 117 2.0 7.0 0.00 0.00 0.00 15
20260831220100 0 82 1.0 7.0 0.00 0.00 0.00 16
20260831215537 0 109 3.0 7.0 0.00 0.00 0.00 16
20260831215014 0 91 3.0 8.0 0.00 0.00 0.00 17
20260831214451 0 110 4.0 8.0 0.00 0.00 0.00 15
20260831213928 0 89 3.0 8.0 0.00 0.00 0.00 15
20260831213405 0 110 4.0 7.0 0.00 0.00 0.00 14
20260831212842 0 85 4.0 7.0 0.00 0.00 0.00 14
20260831212319 0 133 3.0 7.0 0.00 0.00 0.00 14
20260831211756 0 102 4.0 7.0 0.00 0.00 0.00 13
20260831211233 0 114 5.0 7.0 0.00 0.00 0.00 13
20260831210710 0 107 4.0 7.0 0.00 0.00 0.00 15
20260831210147 0 91 2.0 7.0 0.00 0.00 0.00 18
20260831205624 0 96 2.0 7.0 0.00 0.00 0.00 18
20260831205101 0 105 3.0 7.0 0.00 0.00 0.00 18
20260831204539 0 96 3.0 7.0 0.00 0.00 0.00 14
20260831204015 0 112 2.0 7.0 0.00 0.00 0.00 15
20260831203452 0 120 1.0 6.0 0.00 0.00 0.00 14
20260831202929 0 82 1.0 6.0 0.00 0.00 0.00 13
20260831202406 0 114 2.0 6.0 0.00 0.00 0.00 11
20260831201843 0 29 4.0 6.0 0.00 0.00 0.00 10
20260831201320 0 22 1.0 6.0 0.00 0.00 0.00 10
20260831200757 0 47 1.0 5.0 0.00 0.00 0.00 8
20260831200234 0 16 1.0 5.0 0.00 0.00 0.00 12
20260831195711 0 21 0.0 7.0 0.00 0.00 0.00 13
20260831195149 0 357 1.0 7.0 0.00 0.00 0.00 13
20260831194625 0 44 3.0 7.0 0.00 0.00 0.00 11
20260831194102 0 25 4.0 7.0 0.00 0.00 0.00 11
20260831193539 0 43 5.0 7.0 0.00 0.00 0.00 10
20260831193016 0 25 2.0 6.0 0.00 0.00 0.00 10
20260831192453 0 51 2.0 6.0 0.00 0.00 0.00 11
20260831191930 0 39 1.0 6.0 0.00 0.00 0.00 9
20260831191407 0 50 4.0 4.0 0.00 0.00 0.00 11
20260831190844 0 51 0.0 4.0 0.00 0.00 0.00 13
20260831190321 0 333 0.0 3.0 0.00 0.00 0.00 8
20260831185758 0 26 0.0 6.0 0.00 0.00 0.00 13
20260831185235 0 30 1.0 6.0 0.00 0.00 0.00 13
20260831184713 0 47 2.0 5.0 0.00 0.00 0.00 13
20260831184149 0 35 3.0 6.0 0.00 0.00 0.00 13
20260831183626 0 37 0.0 6.0 0.00 0.00 0.00 15
20260831183103 0 43 1.0 6.0 0.00 0.00 0.00 12
20260831182540 0 70 1.0 4.0 0.00 0.00 0.00 9
20260831182018 0 43 1.0 4.0 0.00 0.00 0.00 7
20260831181454 0 8 1.0 5.0 0.00 0.00 0.00 8
20260831180931 0 44 1.0 5.0 0.00 0.00 0.00 9
20260831180408 0 44 0.0 4.0 0.00 0.00 0.00 13
20260831175845 0 61 1.0 4.0 0.00 0.00 0.00 14
20260831175322 0 33 0.0 3.0 0.00 0.00 0.00 15
20260831174759 0 15 0.0 3.0 0.00 0.00 0.00 16
20260831174236 0 9 0.0 3.0 0.00 0.00 0.00 15
20260831173713 0 341 1.0 3.0 0.00 0.00 0.00 13
20260831173150 0 25 0.0 3.0 0.00 0.00 0.00 16
20260831172627 0 35 0.0 3.0 0.00 0.00 0.00 18
20260831172104 0 43 0.0 3.0 0.00 0.00 0.00 17
20260831171542 0 0 0.0 0.0 0.00 0.00 0.00 18
20260831171018 0 0 0.0 0.0 0.00 0.00 0.00 19
20260831170455 0 0 0.0 2.0 0.00 0.00 0.00 21
20260831165932 0 0 0.0 2.0 0.00 0.00 0.00 21
20260831165409 0 0 1.0 1.0 0.00 0.00 0.00 23
20260831164846 0 0 0.0 0.0 0.00 0.00 0.00 25
20260831164323 0 0 0.0 0.0 0.00 0.00 0.00 26
20260831163800 0 0 0.0 0.0 0.00 0.00 0.00 24
20260831163237 0 0 0.0 0.0 0.00 0.00 0.00 26
20260831162714 0 0 0.0 0.0 0.00 0.00 0.00 26
20260831162151 0 0 0.0 0.0 0.00 0.00 0.00 25
20260831161628 0 0 0.0 0.0 0.00 0.00 0.00 27
20260831161104 0 0 0.0 0.0 0.00 0.00 0.00 25
20260831160542 0 0 0.0 0.0 0.00 0.00 0.00 26
20260831160018 0 163 0.0 0.0 0.00 0.00 0.00 27
20260831155455 0 0 0.0 0.0 0.00 0.00 0.00 26
20260831154932 0 0 0.0 0.0 0.00 0.00 0.00 27
20260831154409 0 0 0.0 0.0 0.00 0.00 0.00 27
20260831153847 0 0 0.0 0.0 0.00 0.00 0.00 27
20260831153323 0 0 0.0 0.0 0.00 0.00 0.00 28
20260831152800 0 0 0.0 0.0 0.00 0.00 0.00 25
20260831152237 0 0 0.0 0.0 0.00 0.00 0.00 23
20260831151714 0 0 0.0 0.0 0.00 0.00 0.00 18
20260831151151 0 0 0.0 0.0 0.00 0.00 0.00 21
20260831150628 0 0 0.0 0.0 0.00 0.00 0.00 20
20260831150105 0 0 0.0 0.0 0.00 0.00 0.00 18
20260831145542 0 0 0.0 0.0 0.00 0.00 0.00 20
20260831145019 0 0 0.0 0.0 0.00 0.00 0.00 21
20260831144457 0 0 0.0 0.0 0.00 0.00 0.00 23
20260831143933 0 0 0.0 0.0 0.00 0.00 0.00 25
20260831143410 0 0 0.0 0.0 0.00 0.00 0.00 25
20260831142847 0 0 0.0 0.0 0.00 0.00 0.00 21
20260831142324 0 0 0.0 0.0 0.00 0.00 0.00 23
20260831141801 0 0 0.0 0.0 0.00 0.00 0.00 30
20260831141238 0 0 0.0 0.0 0.00 0.00 0.00 31
20260831140715 0 0 0.0 0.0 0.00 0.00 0.00 31
20260831140152 0 0 0.0 0.0 0.00 0.00 0.00 31
20260831135629 0 0 0.0 0.0 0.00 0.00 0.00 31
20260831135106 0 0 0.0 0.0 0.00 0.00 0.00 29
20260831134544 0 0 0.0 0.0 0.00 0.00 0.00 31
20260831134020 0 0 0.0 0.0 0.00 0.00 0.00 31
20260831133457 0 0 0.0 0.0 0.00 0.00 0.00 31
20260831132934 0 0 0.0 0.0 0.00 0.00 0.00 31
20260831132411 0 0 0.0 0.0 0.00 0.00 0.00 28
20260831131848 0 0 0.0 0.0 0.00 0.00 0.00 32
20260831131326 0 0 0.0 0.0 0.00 0.00 0.00 32
20260831130802 0 0 0.0 0.0 0.00 0.00 0.00 35
20260831130239 0 0 0.0 0.0 0.00 0.00 0.00 33
20260831125716 0 0 0.0 0.0 0.00 0.00 0.00 35
20260831125154 0 0 0.0 0.0 0.00 0.00 0.00 35
20260831124630 0 0 0.0 0.0 0.00 0.00 0.00 34
20260831124107 0 0 0.0 0.0 0.00 0.00 0.00 33
20260831123545 0 0 0.0 0.0 0.00 0.00 0.00 33
20260831123021 0 0 0.0 0.0 0.00 0.00 0.00 32
20260831122458 0 0 0.0 0.0 0.00 0.00 0.00 31
20260831121936 0 0 0.0 0.0 0.00 0.00 0.00 31
20260831121412 0 0 0.0 0.0 0.00 0.00 0.00 30
20260831120849 0 0 0.0 0.0 0.00 0.00 0.00 30
20260831120327 0 0 0.0 0.0 0.00 0.00 0.00 28
20260831115803 0 0 0.0 0.0 0.00 0.00 0.00 29
20260831115241 0 0 0.0 0.0 0.00 0.00 0.00 30
20260831114717 0 0 0.0 0.0 0.00 0.00 0.00 29
20260831114154 0 0 0.0 0.0 0.00 0.00 0.00 33
20260831113631 0 0 0.0 0.0 0.00 0.00 0.00 32
20260831113108 0 0 0.0 0.0 0.00 0.00 0.00 31
20260831112545 0 0 0.0 0.0 0.00 0.00 0.00 31
20260831112022 0 0 0.0 0.0 0.00 0.00 0.00 32
20260831111459 0 0 0.0 0.0 0.00 0.00 0.00 31
20260831110936 0 0 0.0 0.0 0.00 0.00 0.00 32
20260831110413 0 0 0.0 0.0 0.00 0.00 0.00 32
20260831105850 0 0 0.0 0.0 0.00 0.00 0.00 32
20260831105327 0 0 0.0 0.0 0.00 0.00 0.00 33
20260831104805 0 0 0.0 0.0 0.00 0.00 0.00 33
20260831104241 0 0 0.0 0.0 0.00 0.00 0.00 34